SL-12 R/B(2), 13630

Orbit data source: Space-Track

SL-12 R/B(2), 13630 is space debris in GEO originally from a launch on Wed, 20 Oct 1982 UTC launched from the Tyuratam Missile And Space Complex (TTMTR). Debris objects in space refer to the collection of defunct objects orbiting the Earth. Examples of debris include non-operational satellites, rocket bodies, and fragments generated from explosions, collisions, or faulty payload assembly.

Not visible in the next 10 days
Identifier
13630, 1982-103E
Orbit
GEO
Country
Flag of CISCIS
Related business
Manufacturer
NPO Energiya
Mission
Spacecraft
Bus & Motor
BLOK DM, Unknown motor
Mass
2,440 kg wet, 2,440 kg dry
Launch date (UTC)
1982-10-20 (43 years ago)
Launch vehicle
Unknown
Launch site
Tyuratam Missile And Space Complex (TTMTR)
Object type
Payload
Rocket body
Debris
Shape & HBR
Unknown
Radar Cross Section
Large (>1 m²)

Expand to show TLE details & history
Last TLE update: 18 hours ago

TLE from 18 hours ago
0 SL-12 R/B(2)
1 13630U 82103E   25348.86341704 -.00000283  00000-0  00000-0 0  9996
2 13630   7.7021 303.0827 0011210 194.9016 352.4295  1.00400460119657
Epoch: 2025-12-14T20:43Z
TLE epoch observation values (Epoch: 2025-12-14T20:43:19.232Z)
Latitude
-0.97491°
Longitude
95.70762°
Altitude
35,703.494 km
Speed
3.079 km/s
True Right ascension
08h 41m 13s
True Declination
0° 58' 26"
Sunlit
Object was in daylight at epoch
Visualization orbit readout
Latitude
Unknown
Longitude
Unknown
Altitude
Unknown
Speed
Unknown
Apparent Right ascension
Unknown
Apparent Declination
Unknown
Sunlit
N/A
Visualization observer readout
Local Sidereal Time
13:25:43
Azimuth
Unknown
Elevation
Unknown
Doppler factor
Unknown
Orbital elements
Apogee altitude
35,798.832 km
Perigee altitude
35,704.377 km
Semi-major axis
42,129.741 km
Eccentricity
0.00112
Inclination
7.7021°
RAAN
303.0827°
Arg. of periapsis
194.9016°
True anomaly
352.41255°
Mean anomaly
352.4295°
Eccentric anomaly
352.42103°
Mean motion
0.25099 °/min
Orbital period
1,434.31 mins
BSTAR
0
Loading maneuver chart data...
Computing Atmospheric mass density...
Loading historical data...
Loading historical data...
Loading historical data...
Loading historical data...
Loading historical data...
Loading historical data...
Loading historical data...

Documentation

Showing up to 5 results
|